Terug naar catalogus

STARLINK-36548

ActiefCommunicatieVLEO
NORAD 67617·PAYLOAD·🇺🇸 United States

Gelanceerd Jan 30, 2026 vanaf Cape Canaveral Space Force Station

Loading…

Volgende Passages (komende 24 uur)

TLE

VersSource: CelesTrak SupGP

Epoch: Sep 15, 2026, 02:38 UTC

1 67617C 26020A   26258.11020833  .00038387  00000+0  13905-2 0  2584
2 67617  43.0010 150.3544 0001149 273.5786 297.6082 15.27556218    19

Volg STARLINK-36548 in realtime met AllMySat

Download on the App Store